Location: Lane
(33.5226°N, 79.8788°W)
Time: 01:21:45
(UTC+00:00)

Vanguard 1 Rocket - Pass Details

Date: 04 October 2022
Orbit: 650 x 4225 km, 34.3° (Epoch: 05 December)

Event Time Altitude Azimuth Distance (km) Brightness Sun altitude
Rises 01:29:40 0° 253° (WSW) 8,245 13.0 -31.5°
Reaches altitude 10° 01:35:51 10° 254° (WSW) 6,913 12.4 -32.7°
Maximum altitude 01:56:53 87° 168° (SSE) 2,425 9.2 -36.8°
Enters shadow 01:59:07 69° 87° (E) 2,348 9.0 -37.2°
